Hourly Data Report for November 17, 2018

TORONTO CITY
ONTARIO
Current Station Operator: ECCC - MSC

43°40'00.000" N
79°24'00.000" W
112.50 m
6158355
71508
XTO

Download Data

Hourly Data (November 2018)
Hourly Data Report for November 17, 2018
TIME
LST
Temp Definition
°C
Dew Point Definition
°C
Rel Hum Definition
%
Precip. Amount Definition
mm

Wind Dir Definition
10's deg

Wind Spd Definition
km/h
Visibility Definition
km
Stn Press Definition
kPa
Hmdx Definition


Wind Chill Definition


Weather Definition


00:00 3.0 0.6 84 0.0 LegendMM LegendMM   99.93     LegendNANA
01:00 3.1 0.5 83 0.0 LegendMM LegendMM   100.02     LegendNANA
02:00 3.2 0.6 83 0.0 LegendMM LegendMM   100.06     LegendNANA
03:00 3.3 0.0 79 0.0 LegendMM LegendMM   100.15     LegendNANA
04:00 3.1 0.1 81 0.0 LegendMM LegendMM   100.18     LegendNANA
05:00 3.3 0.3 81 0.0 LegendMM LegendMM   100.27     LegendNANA
06:00 2.2 0.2 87 0.2 LegendMM LegendMM   100.40     LegendNANA
07:00 2.4 -2.1 72 0.0 LegendMM LegendMM   100.49     LegendNANA
08:00 2.3 -2.9 68 0.0 LegendMM LegendMM   100.62     LegendNANA
09:00 2.4 -3.8 64 0.0 LegendMM LegendMM   100.67     LegendNANA
10:00 2.6 -3.9 62 0.0 LegendMM LegendMM   100.72     LegendNANA
11:00 2.4 -3.5 65 0.0 LegendMM LegendMM   100.75     LegendNANA
12:00 2.9 -3.4 63 0.0 LegendMM LegendMM   100.74     LegendNANA
13:00 3.2 -3.8 60 0.0 LegendMM LegendMM   100.75     LegendNANA
14:00 2.6 -3.1 66 0.0 LegendMM LegendMM   100.82     LegendNANA
15:00 1.9 -3.7 67 0.0 LegendMM LegendMM   100.88     LegendNANA
16:00 1.9 -6.4 54 0.0 LegendMM LegendMM   100.98     LegendNANA
17:00 1.6 -7.7 50 0.0 LegendMM LegendMM   101.06     LegendNANA
18:00 0.9 -7.4 54 0.0 LegendMM LegendMM   101.13     LegendNANA
19:00 0.4 -6.8 58 0.0 LegendMM LegendMM   101.23     LegendNANA
20:00 -0.2 -5.8 66 0.0 LegendMM LegendMM   101.24     LegendNANA
21:00 -0.5 -5.8 68 0.0 LegendMM LegendMM   101.27     LegendNANA
22:00 -0.7 -6.2 66 0.0 LegendMM LegendMM   101.30     LegendNANA
23:00 -1.1 -6.1 69 0.0 LegendMM LegendMM   101.31     LegendNANA

Notes on Data Quality.

Legend

  • E = Estimated
  • M = Missing
  • NA = Not Available*
  • [empty] = Indicates an unobserved value
Date modified: